This demonstration page uses our WeatherBlox Daily Observations layout. Learn more.

Left ArrowRight Arrow

36.19886, -115.1175

Hourly Observations for August 31, 2015

Temp ( °F °C ) Dew Point ( °F °C ) Humidity (%) Winds ( mph kmh ) Pressure ( in mb ) Visibility ( mi km ) Precip ( " mm )
12:53 am 00:53 Clear 84 28.9 40 4.4 21 21 NNW 5 7 29.76 1008 10 16 0.00 0.00
1:53 am 01:53 Clear 83 28.3 39 3.9 21 21 Calm 29.76 1008 10 16 0.00 0.00
2:53 am 02:53 Clear 81 27.2 39 3.9 22 22 N 5 7 29.77 1008 10 16 0.00 0.00
3:53 am 03:53 Clear 78 25.6 42 5.6 28 28 NNW 5 7 29.78 1009 10 16 0.00 0.00
4:53 am 04:53 Clear 77 25 43 6.1 30 30 N 6 9 29.79 1009 10 16 0.00 0.00
5:53 am 05:53 Clear 77 25 41 5 28 28 N 7 11 29.82 1010 10 16 0.00 0.00
6:53 am 06:53 Sunny 77 25 42 5.6 29 29 NW 5 7 29.84 1011 10 16 0.00 0.00
7:53 am 07:53 Sunny 81 27.2 43 6.1 26 26 NNE 3 6 29.85 1011 10 16 0.00 0.00
8:53 am 08:53 Sunny 86 30 44 6.7 23 23 E 3 6 29.86 1011 10 16 0.00 0.00
9:53 am 09:53 Sunny 89 31.7 46 7.8 23 23 SSE 7 11 29.86 1011 10 16 0.00 0.00
10:53 am 10:53 Sunny 92 33.3 45 7.2 20 20 SE 9 15 29.86 1011 10 16 0.00 0.00
11:53 am 11:53 Sunny 94 34.4 45 7.2 18 18 SSE 8 13 29.85 1011 10 16 0.00 0.00
12:53 pm 12:53 Sunny 98 36.7 46 7.8 17 17 SSE 12 19 29.82 1010 10 16 0.00 0.00
1:53 pm 13:53 Sunny 100 37.8 46 7.8 16 16 SE 14 22 29.79 1009 10 16 0.00 0.00
2:53 pm 14:53 Mostly Sunny 100 37.8 46 7.8 16 16 undefined N/A 29.76 1008 10 16 0.00 0.00
3:53 pm 15:53 Sunny 101 38.3 44 6.7 14 14 SW 14 22 29.73 1007 10 16 0.00 0.00
4:53 pm 16:53 Sunny 101 38.3 42 5.6 13 13 S 14 22 29.72 1007 10 16 0.00 0.00
5:53 pm 17:53 Sunny 100 37.8 42 5.6 14 14 SSW 13 20 29.71 1006 10 16 0.00 0.00
6:53 pm 18:53 Sunny 98 36.7 43 6.1 15 15 WSW 13 20 29.72 1006 10 16 0.00 0.00
7:53 pm 19:53 Clear 96 35.6 39 3.9 14 14 W 9 15 29.73 1007 10 16 0.00 0.00
8:53 pm 20:53 Clear 93 33.9 38 3.3 14 14 SW 7 11 29.76 1008 10 16 0.00 0.00
9:53 pm 21:53 Clear 91 32.8 35 1.7 14 14 SW 6 9 29.78 1008 10 16 0.00 0.00
10:53 pm 22:53 Clear 89 31.7 35 1.7 15 15 SSW 9 15 29.78 1009 10 16 0.00 0.00
11:53 pm 23:53 Clear 87 30.6 34 1.1 15 15 SW 6 9 29.78 1009 10 16 0.00 0.00

Powered by AerisWeather